Location: ??????
(42.0089°N, 44.3281°E)
Time: 16:56:21
(UTC+00:00)

NOSS 8 (H) - Pass Details

Date: 04 June 2022
Orbit: 366 x 1779 km, 63.3° (Epoch: 02 July)

Event Time Altitude Azimuth Distance (km) Brightness Sun altitude
Rises 18:28:26 0° 312° (NW) 2,633 9.9 -16.5°
Reaches altitude 10° 18:30:28 10° 302° (WNW) 1,886 8.6 -16.7°
Maximum altitude 18:34:14 32° 238° (WSW) 1,200 6.5 -17.1°
Enters shadow 18:37:20 19° 189° (S) 1,887 7.1 -17.4°
